Theta_e
288 289 289 288 288 289 289 290 289 290 291 291 292 292 292 293 295 294 295 296 296 297 298 299 300 301 302 303 304 304 305 307 310 313 316 319 321 322 322 322 323 323
287 288 289 288 288 288 288 289 289 289 289 290 291 291 291 292 293 293 293 293 294 296 297 297 298 298 299 300 301 302 303 305 306 310 310 311 315 318 320 321 321 322
287 287 286 286 286 287 287 288 288 288 288 289 290 290 291 292 292 292 292 292 292 294 295 296 296 297 297 298 299 299 300 301 302 304 306 306 308 311 314 318 320 320
286 286 286 286 286 286 286 286 286 287 287 288 288 290 290 291 291 291 291 291 291 292 293 294 295 296 296 297 297 297 298 298 300 302 302 304 306 308 310 313 315 317
285 285 285 286 286 286 286 285 284 285 285 286 287 288 288 289 289 289 290 290 291 291 292 292 294 294 295 296 296 296 296 296 298 299 300 301 303 304 306 307 309 310
284 285 285 285 285 285 284 284 284 284 284 285 286 286 287 287 287 288 288 289 290 291 291 291 291 292 293 294 295 295 295 295 296 297 298 298 299 301 303 304 305 306
283 283 284 284 284 284 284 283 283 283 283 284 285 285 286 286 286 286 287 288 289 290 290 290 290 290 291 292 292 292 293 294 296 297 296 296 296 296 298 300 301 303
282 283 283 283 283 283 283 282 282 282 282 283 283 284 285 285 285 286 286 287 288 288 289 289 289 289 290 290 290 290 291 293 295 294 293 292 292 293 295 297 297 298
281 281 282 281 282 282 282 281 281 281 282 282 282 283 284 284 284 285 285 286 287 287 288 288 288 288 289 289 289 289 289 291 292 290 289 288 289 290 292 294 294 295
280 281 280 280 280 281 280 280 280 280 281 281 281 282 282 283 283 284 284 285 285 286 286 287 287 288 288 288 288 288 289 289 288 287 287 288 288 288 289 291 292 293
279 280 279 279 280 280 279 279 279 279 279 280 280 280 281 281 282 283 283 284 285 285 285 285 286 287 287 287 287 288 288 288 287 286 287 287 287 288 289 289 290 290
279 278 278 279 279 278 278 278 278 278 278 278 279 279 279 280 281 281 283 283 284 284 284 285 285 286 286 286 287 287 287 287 286 286 286 286 286 287 287 287 288 289
278 278 278 278 278 277 277 277 277 277 277 277 278 278 278 279 280 281 282 282 283 283 283 284 284 284 285 285 286 286 286 286 286 286 286 286 286 286 286 287 287 287
277 277 278 278 277 277 276 276 276 276 276 276 277 277 277 278 279 280 281 282 282 282 283 283 283 283 284 285 285 285 285 286 286 285 285 285 285 286 286 286 286 287
277 277 277 277 276 276 275 275 275 275 275 276 276 276 277 277 278 279 280 280 281 281 282 282 283 283 284 284 284 284 285 285 285 285 285 285 285 285 285 286 286 286
277 276 276 276 275 275 274 274 274 274 275 275 275 275 276 277 277 278 278 279 279 280 280 282 282 283 284 285 285 284 284 285 285 285 285 284 284 284 285 285 286 286
276 275 275 274 274 274 274 274 274 274 274 274 274 275 275 276 276 276 277 278 278 279 279 280 281 282 283 285 286 286 285 284 284 284 285 284 284 284 283 284 285 286
275 274 274 274 274 273 273 273 273 273 273 273 274 274 274 275 275 275 276 277 277 278 278 278 279 282 283 284 285 285 285 284 284 284 284 284 284 283 284 284 284 285
274 273 273 273 273 272 272 272 272 273 273 273 273 273 274 274 274 275 275 276 276 276 276 277 277 280 282 283 284 285 285 284 283 284 284 283 284 283 283 284 284 284
273 273 272 272 272 272 272 272 272 272 272 272 273 273 273 273 273 274 274 275 275 275 275 276 276 279 282 283 283 284 284 284 283 283 284 284 283 283 283 283 283 283
272 272 272 271 271 271 271 271 271 271 271 272 272 272 272 272 272 273 273 274 274 275 275 275 276 279 281 282 282 283 284 285 283 283 283 283 283 283 283 283 283 283
272 271 271 270 270 270 270 270 270 270 270 271 271 271 272 272 272 273 273 273 274 274 274 274 275 279 280 281 282 283 284 282 280 280 280 280 280 281 281 281 281 281
271 271 270 269 269 269 269 269 269 269 270 271 270 270 270 271 271 272 273 273 273 274 273 273 274 277 279 280 281 283 282 280 279 279 278 278 278 279 279 280 280 280
271 270 269 269 269 268 268 269 269 269 269 270 269 269 270 270 271 271 272 273 273 273 273 273 273 276 278 280 281 282 281 278 278 278 277 277 277 278 278 278 278 281
270 269 269 268 268 268 268 268 268 268 269 269 269 269 269 270 271 271 271 272 272 272 273 273 273 275 278 279 280 281 280 278 277 276 275 275 276 276 277 277 278 279
269 268 268 268 267 267 268 268 268 268 268 268 268 269 269 269 270 270 270 271 272 272 272 273 273 273 275 278 279 280 280 277 276 275 274 274 275 275 275 276 276 277
Wind_Speed
11 10 10 11 11 10 11 11 11 11 10 10 10 11 11 11 12 13 13 12 14 13 13 14 13 13 12 12 13 13 13 13 12 11 12 12 11 10 9 9 9 8
12 11 10 9 8 9 9 10 11 11 11 10 10 10 10 10 11 12 12 13 13 12 12 13 14 14 13 12 12 13 12 12 14 11 13 15 12 12 11 11 10 9
12 12 12 12 11 12 11 10 10 10 10 10 10 10 10 10 11 12 12 13 13 13 13 13 13 13 14 13 13 12 11 12 13 13 13 14 13 12 13 13 10 9
12 12 12 12 12 13 12 11 11 10 10 10 10 10 10 10 11 12 12 13 12 12 13 13 12 12 13 13 13 12 13 12 12 13 13 12 12 12 13 11 12 11
13 12 11 10 11 11 11 12 13 12 13 12 12 12 11 11 12 12 11 11 12 13 12 13 12 12 13 12 12 11 12 12 13 13 13 13 12 12 12 13 13 14
11 11 11 11 11 12 11 11 13 14 15 15 14 12 11 12 12 12 12 12 11 11 12 12 13 13 13 12 11 11 12 12 12 13 13 13 13 13 12 13 15 15
11 10 11 10 11 12 11 12 13 13 13 13 12 13 13 13 13 14 13 12 12 11 11 12 13 13 11 11 11 13 12 13 12 12 12 12 13 15 14 14 14 14
11 9 9 10 9 9 9 11 13 13 13 12 13 13 13 13 14 13 13 14 12 12 12 12 11 11 12 11 12 13 13 10 10 12 13 14 14 14 14 12 14 15
10 10 10 11 10 8 9 12 12 12 12 12 13 13 12 12 13 14 14 13 13 12 12 12 12 11 10 11 11 12 13 12 11 12 13 14 15 14 15 14 14 14
10 10 11 11 10 8 10 13 13 12 11 12 12 11 13 12 13 13 13 13 13 13 12 12 12 11 11 10 11 12 13 13 12 12 12 13 13 14 14 14 15 15
10 9 10 11 10 9 12 13 13 12 11 13 13 13 13 13 12 11 12 12 12 13 14 13 13 12 12 11 10 10 10 13 13 13 12 13 13 13 14 14 15 15
9 9 10 10 9 10 12 13 12 12 13 12 12 13 14 13 13 12 11 12 11 11 12 13 13 12 12 12 11 10 10 12 13 13 13 13 14 13 13 13 14 15
9 9 9 9 9 11 11 11 12 12 12 13 12 13 14 13 13 13 12 11 12 12 12 12 12 11 11 12 11 11 12 13 13 14 14 13 13 14 13 13 14 14
9 8 8 10 10 11 11 11 12 12 12 11 12 13 13 13 14 14 13 11 11 12 12 12 12 11 11 10 10 11 12 12 13 14 15 14 14 13 13 14 15 14
9 8 9 10 11 11 11 12 12 12 12 12 11 12 11 12 13 13 13 13 12 11 12 11 11 10 9 10 12 14 13 14 15 14 14 13 13 12 12 13 14 14
9 9 10 10 10 11 11 12 12 13 12 13 13 12 12 12 12 12 13 13 13 12 11 10 10 9 12 24 22 16 15 13 13 13 13 12 12 11 10 11 12 12
9 9 9 10 10 10 11 12 13 12 12 13 13 13 14 13 12 13 12 12 12 12 12 11 10 11 22 23 23 26 18 14 14 15 13 13 12 11 11 11 10 10
9 10 10 10 10 11 12 12 11 12 12 12 13 14 13 13 14 13 13 13 12 12 12 12 11 17 25 24 24 25 22 17 14 13 12 12 12 11 10 9 10 9
9 10 10 10 10 11 11 11 12 12 12 12 13 13 12 13 13 14 14 13 12 13 13 13 11 19 23 25 25 26 26 22 13 13 14 13 12 11 11 11 10 9
9 10 10 10 10 11 11 11 11 11 12 11 11 11 12 13 14 14 13 13 13 13 14 13 13 17 25 25 25 26 26 22 14 14 13 13 12 12 10 10 9 9
9 9 10 10 11 12 11 11 12 12 12 11 10 11 12 13 13 13 12 12 13 13 13 14 13 23 25 26 26 26 27 22 12 11 11 11 11 12 11 10 10 10
9 9 9 10 12 12 12 12 12 12 12 12 11 11 11 11 11 12 12 13 13 13 14 14 14 24 25 26 27 25 26 11 10 10 10 11 11 11 10 11 10 11
8 8 9 11 11 12 12 12 13 14 12 10 12 12 11 11 12 13 13 13 15 14 15 15 15 20 24 25 25 26 18 8 11 10 11 10 9 10 9 9 9 11
8 8 9 11 10 11 12 12 11 10 11 10 11 13 14 13 12 13 13 12 13 15 14 15 16 19 24 24 25 24 18 12 10 10 11 12 12 12 11 11 12 18
8 9 9 10 11 12 11 11 11 12 11 11 10 11 13 12 12 12 14 13 13 14 18 16 14 17 22 22 25 23 18 12 11 11 13 13 14 14 13 11 12 13
8 9 10 10 12 12 11 10 11 11 11 11 12 11 12 12 12 12 15 14 13 13 13 13 14 14 17 24 23 23 23 14 11 12 13 15 14 14 14 14 14 13
Wind_Direction
11 10 7 5 5 1 354 356 356 350 348 347 345 346 347 339 341 343 339 339 338 335 335 335 334 334 334 333 334 333 331 327 328 328 325 322 313 302 294 289 279 269
8 8 7 1 0 359 354 355 353 351 347 345 344 340 339 335 339 341 340 338 334 332 333 334 335 334 334 335 333 332 328 330 330 332 329 329 326 320 312 303 292 285
2 4 4 2 359 355 351 352 351 349 346 340 337 340 336 335 335 337 338 338 334 335 335 333 332 334 335 335 334 330 328 331 330 330 329 327 326 325 323 318 307 292
359 0 358 356 355 353 349 351 352 348 342 342 343 338 334 333 334 333 334 336 335 334 334 333 332 332 333 334 335 332 332 331 328 327 325 322 323 323 321 321 319 315
352 353 354 353 350 349 348 351 351 347 345 341 338 338 335 335 334 332 332 331 332 333 334 334 333 334 334 333 334 331 333 330 329 329 326 325 325 326 325 323 320 316
349 348 348 349 349 347 348 351 349 345 341 341 340 336 335 335 333 332 331 328 328 331 332 334 335 335 334 332 330 332 329 328 327 328 329 329 328 329 326 322 320 317
345 345 343 346 343 344 346 349 345 341 340 334 332 335 335 334 333 332 331 328 327 329 331 333 334 334 333 329 333 330 328 324 323 329 332 333 332 327 327 323 320 317
342 341 339 341 340 337 348 348 343 339 334 332 333 331 332 331 330 329 329 327 328 329 329 329 329 331 331 332 331 329 325 324 326 339 341 333 329 324 324 325 321 318
340 339 343 340 339 338 352 348 341 335 330 331 329 328 328 328 327 327 325 325 325 326 328 328 328 327 327 329 328 327 322 325 339 343 334 325 324 322 323 322 319 316
340 340 344 339 338 341 354 344 338 331 329 328 326 324 324 323 324 322 322 323 325 326 327 326 326 323 324 325 325 324 324 331 335 329 323 321 320 320 320 320 319 318
339 344 343 339 339 348 348 341 335 331 330 330 327 325 324 322 318 318 317 320 323 326 326 326 325 325 324 323 321 320 326 328 324 320 320 318 317 316 317 319 318 314
341 345 343 340 342 349 343 338 332 331 330 327 325 324 323 321 318 318 317 315 317 319 321 320 321 323 322 321 319 323 327 323 320 317 318 317 316 316 317 316 314 314
342 345 341 340 344 344 340 334 331 329 328 326 326 324 321 319 318 316 316 316 318 320 320 318 318 318 318 316 318 324 322 317 317 318 317 316 314 314 313 314 313 312
341 340 342 341 343 341 335 332 330 329 327 324 325 324 322 321 321 320 318 319 321 319 318 318 317 316 315 314 319 320 316 315 316 317 317 315 314 313 316 314 312 309
340 343 345 344 341 336 335 332 331 328 326 325 324 321 322 322 319 318 321 320 317 315 316 316 314 313 313 319 318 315 315 315 315 312 310 308 310 308 306 308 311 311
344 346 341 340 334 335 333 330 328 327 326 326 324 323 322 320 319 322 320 317 318 319 315 314 314 312 312 314 315 314 314 313 310 309 308 307 307 305 303 305 303 303
345 340 339 336 333 333 329 329 326 325 325 324 324 326 324 321 323 321 319 319 317 315 316 314 312 310 312 313 313 313 313 309 309 309 307 305 304 305 308 307 300 297
342 337 336 332 332 330 328 325 322 322 323 323 324 325 323 322 321 319 319 318 317 317 314 313 310 313 315 315 315 314 314 312 308 306 304 303 301 301 301 298 296 297
337 334 331 328 329 329 326 323 323 322 322 324 324 319 318 319 318 320 318 317 318 316 316 315 313 314 315 316 317 317 317 316 309 305 303 298 297 298 297 296 297 304
333 330 327 326 328 328 323 322 321 321 321 320 316 317 318 318 317 315 315 314 316 316 314 313 311 311 316 318 319 318 317 315 304 303 300 300 301 298 295 298 302 310
328 326 325 328 329 324 322 322 321 320 321 319 317 318 318 317 315 313 311 310 311 313 313 311 308 314 319 320 319 319 315 318 327 327 325 325 318 312 312 315 317 316
326 323 327 329 326 322 321 321 320 321 320 318 315 313 311 308 307 307 308 309 310 310 311 309 310 316 319 319 319 318 322 342 338 333 333 328 326 326 323 321 317 314
324 325 329 327 322 322 320 320 322 320 319 320 316 314 311 310 310 311 310 309 310 311 312 310 309 312 316 317 318 319 331 340 336 333 331 324 318 315 311 309 311 312
326 329 328 323 320 320 319 317 317 313 313 317 315 312 311 309 309 307 307 307 308 308 309 310 308 310 315 316 316 319 338 340 338 332 327 327 320 318 316 312 311 311
327 330 326 321 320 317 317 316 316 316 312 311 309 309 308 308 307 307 306 306 306 305 307 308 308 311 314 316 317 320 333 342 338 334 331 328 324 319 316 314 311 312
329 327 322 321 319 314 315 314 314 312 311 312 311 308 306 307 307 304 303 304 306 307 308 310 312 312 314 317 318 322 330 339 338 330 326 321 319 315 315 316 314 311